Location: Obersdorf
(47.4079°N, 10.2781°E)
Time: 06:09:59
(UTC+01:00)

AO-109 - Pass Details

Date: 01 December 2021
Orbit: 478 x 515 km, 60.7° (Epoch: 22 January)

Event Time Altitude Azimuth Distance (km) Brightness Sun altitude
Exits shadow 05:09:39 18° 28° (NNE) 1,240 ? -25.6°
Drops below altitude 10° 05:12:06 10° 69° (ENE) 1,657 ? -25.2°
Sets 05:14:45 0° 89° (E) 2,533 ? -24.7°
